Location: Kosice
(0.0000°N, 21.2500°E)
Time: 06:07:30
(UTC+01:00)

ARIANE 5 DEB (SYLDA) - Pass Details

Date: 24 January 2021
Orbit: 566 x 35686 km, 4.3° (Epoch: 04 March)

Event Time Altitude Azimuth Distance (km) Brightness Sun altitude
Rises 17:47:45 0° 259° (W) 2,839 8.5 -0.1°
Reaches altitude 10° 17:49:16 10° 256° (WSW) 2,127 7.6 -0.5°
Maximum altitude 17:53:19 68° 172° (S) 1,208 4.1 -1.4°
Drops below altitude 10° 18:10:15 10° 90° (E) 8,095 7.6 -5.4°
Enters shadow 18:22:28 - 89° (E) 12,382 8.5 -8.3°
